| time (UTC) | temp F | wind direction | speed MPH | gust MPH | rain 1hr in | rain 24hr in | rain mn in | humidity % | barometer mb |
| 20260831225544 | 80 | 63 | 6.0 | 10.0 | 0.00 | 0.00 | 0.00 | 45 | 1015.5 |
| 20260831225044 | 80 | 61 | 6.0 | 10.0 | 0.00 | 0.00 | 0.00 | 44 | 1015.6 |
| 20260831224544 | 80 | 67 | 6.0 | 10.0 | 0.00 | 0.00 | 0.00 | 44 | 1015.6 |
| 20260831224044 | 80 | 76 | 5.0 | 10.0 | 0.00 | 0.00 | 0.00 | 44 | 1015.7 |
| 20260831223543 | 80 | 72 | 5.0 | 8.0 | 0.00 | 0.00 | 0.00 | 44 | 1015.7 |
| 20260831223042 | 80 | 79 | 4.0 | 8.0 | 0.00 | 0.00 | 0.00 | 44 | 1015.7 |
| 20260831222542 | 80 | 90 | 5.0 | 8.0 | 0.00 | 0.00 | 0.00 | 44 | 1015.8 |
| 20260831222040 | 80 | 90 | 4.0 | 9.0 | 0.00 | 0.00 | 0.00 | 45 | 1015.8 |
| 20260831221540 | 79 | 95 | 5.0 | 9.0 | 0.00 | 0.00 | 0.00 | 45 | 1015.9 |
| 20260831221039 | 79 | 103 | 3.0 | 8.0 | 0.00 | 0.00 | 0.00 | 46 | 1016.0 |
| 20260831220539 | 78 | 74 | 4.0 | 7.0 | 0.00 | 0.00 | 0.00 | 46 | 1016.0 |
| 20260831220039 | 78 | 46 | 3.0 | 4.0 | 0.00 | 0.00 | 0.00 | 46 | 1016.0 |
| 20260831215539 | 78 | 48 | 1.0 | 5.0 | 0.00 | 0.00 | 0.00 | 47 | 1016.0 |
| 20260831215038 | 78 | 9 | 2.0 | 5.0 | 0.00 | 0.00 | 0.00 | 47 | 1016.0 |
| 20260831214540 | 78 | 44 | 0.0 | 4.0 | 0.00 | 0.00 | 0.00 | 47 | 1015.9 |
| 20260831214039 | 78 | 44 | 2.0 | 5.0 | 0.00 | 0.00 | 0.00 | 47 | 1016.0 |
| 20260831213536 | 79 | 12 | 3.0 | 6.0 | 0.00 | 0.00 | 0.00 | 46 | 1016.0 |
| 20260831213034 | 79 | 25 | 4.0 | 7.0 | 0.00 | 0.00 | 0.00 | 46 | 1016.1 |
| 20260831212534 | 80 | 344 | 3.0 | 8.0 | 0.00 | 0.00 | 0.00 | 44 | 1016.0 |
| 20260831212032 | 80 | 76 | 2.0 | 8.0 | 0.00 | 0.00 | 0.00 | 43 | 1016.0 |
| 20260831211532 | 80 | 63 | 3.0 | 6.0 | 0.00 | 0.00 | 0.00 | 43 | 1016.0 |
| 20260831211030 | 80 | 56 | 3.0 | 6.0 | 0.00 | 0.00 | 0.00 | 44 | 1016.1 |
| 20260831210530 | 80 | 42 | 3.0 | 5.0 | 0.00 | 0.00 | 0.00 | 45 | 1016.1 |
| 20260831210029 | 80 | 5 | 3.0 | 4.0 | 0.00 | 0.00 | 0.00 | 44 | 1016.1 |
| 20260831205529 | 80 | 346 | 1.0 | 3.0 | 0.00 | 0.00 | 0.00 | 44 | 1016.1 |
| 20260831205030 | 81 | 344 | 1.0 | 3.0 | 0.00 | 0.00 | 0.00 | 44 | 1016.1 |
| 20260831204529 | 81 | 355 | 0.0 | 3.0 | 0.00 | 0.00 | 0.00 | 44 | 1016.1 |
| 20260831204028 | 81 | 355 | 2.0 | 5.0 | 0.00 | 0.00 | 0.00 | 44 | 1016.0 |
| 20260831203528 | 81 | 355 | 2.0 | 5.0 | 0.00 | 0.00 | 0.00 | 44 | 1016.0 |
| 20260831203027 | 82 | 355 | 3.0 | 6.0 | 0.00 | 0.00 | 0.00 | 43 | 1016.1 |
| 20260831202527 | 82 | 5 | 2.0 | 6.0 | 0.00 | 0.00 | 0.00 | 43 | 1016.1 |
| 20260831202027 | 82 | 48 | 4.0 | 6.0 | 0.00 | 0.00 | 0.00 | 43 | 1016.1 |
| 20260831201527 | 82 | 30 | 3.0 | 5.0 | 0.00 | 0.00 | 0.00 | 44 | 1016.1 |
| 20260831201027 | 82 | 66 | 1.0 | 6.0 | 0.00 | 0.00 | 0.00 | 44 | 1016.1 |
| 20260831200527 | 82 | 70 | 3.0 | 7.0 | 0.00 | 0.00 | 0.00 | 44 | 1016.1 |
| 20260831200027 | 82 | 78 | 4.0 | 10.0 | 0.00 | 0.00 | 0.00 | 44 | 1016.1 |
| 20260831195527 | 82 | 63 | 4.0 | 10.0 | 0.00 | 0.00 | 0.00 | 44 | 1016.1 |
| 20260831195027 | 81 | 79 | 3.0 | 8.0 | 0.00 | 0.00 | 0.00 | 44 | 1016.1 |
| 20260831194526 | 82 | 38 | 2.0 | 9.0 | 0.00 | 0.00 | 0.00 | 44 | 1016.0 |
| 20260831194028 | 82 | 29 | 3.0 | 9.0 | 0.00 | 0.00 | 0.00 | 44 | 1016.0 |
| 20260831193527 | 82 | 5 | 0.0 | 3.0 | 0.00 | 0.00 | 0.00 | 44 | 1016.0 |
| 20260831193037 | 81 | 81 | 0.0 | 4.0 | 0.00 | 0.00 | 0.00 | 44 | 1016.0 |
| 20260831192525 | 81 | 80 | 0.0 | 5.0 | 0.00 | 0.00 | 0.00 | 44 | 1016.0 |
| 20260831192028 | 81 | 80 | 2.0 | 5.0 | 0.00 | 0.00 | 0.00 | 44 | 1016.0 |
| 20260831191525 | 82 | 114 | 2.0 | 9.0 | 0.00 | 0.00 | 0.00 | 44 | 1016.0 |
| 20260831191027 | 82 | 123 | 2.0 | 9.0 | 0.00 | 0.00 | 0.00 | 44 | 1016.0 |
| 20260831190525 | 82 | 134 | 2.0 | 11.0 | 0.00 | 0.00 | 0.00 | 43 | 1016.0 |
| 20260831190039 | 82 | 102 | 3.0 | 11.0 | 0.00 | 0.00 | 0.00 | 43 | 1015.9 |
| 20260831185525 | 82 | 88 | 6.0 | 11.0 | 0.00 | 0.00 | 0.00 | 43 | 1015.9 |
| 20260831185027 | 82 | 69 | 5.0 | 10.0 | 0.00 | 0.00 | 0.00 | 43 | 1015.7 |
| 20260831184524 | 82 | 95 | 5.0 | 10.0 | 0.00 | 0.00 | 0.00 | 43 | 1015.7 |
| 20260831184026 | 82 | 90 | 5.0 | 10.0 | 0.00 | 0.00 | 0.00 | 43 | 1015.5 |
| 20260831183524 | 82 | 75 | 3.0 | 10.0 | 0.00 | 0.00 | 0.00 | 43 | 1015.5 |
| 20260831183023 | 82 | 70 | 4.0 | 13.0 | 0.00 | 0.00 | 0.00 | 42 | 1015.4 |
| 20260831182523 | 82 | 72 | 7.0 | 13.0 | 0.00 | 0.00 | 0.00 | 42 | 1015.4 |
| 20260831182023 | 82 | 68 | 5.0 | 11.0 | 0.00 | 0.00 | 0.00 | 42 | 1015.3 |
| 20260831181524 | 83 | 60 | 6.0 | 11.0 | 0.00 | 0.00 | 0.00 | 42 | 1015.3 |
| 20260831181023 | 83 | 82 | 5.0 | 10.0 | 0.00 | 0.00 | 0.00 | 42 | 1015.3 |
| 20260831180522 | 83 | 72 | 4.0 | 11.0 | 0.00 | 0.00 | 0.00 | 42 | 1015.2 |
| 20260831180022 | 83 | 59 | 7.0 | 11.0 | 0.00 | 0.00 | 0.00 | 41 | 1015.2 |
| 20260831175622 | 83 | 71 | 7.0 | 13.0 | 0.00 | 0.00 | 0.00 | 41 | 1015.3 |
| 20260831175022 | 83 | 92 | 6.0 | 13.0 | 0.00 | 0.00 | 0.00 | 41 | 1015.2 |
| 20260831174521 | 83 | 62 | 7.0 | 13.0 | 0.00 | 0.00 | 0.00 | 41 | 1015.2 |
| 20260831174021 | 83 | 90 | 8.0 | 16.0 | 0.00 | 0.00 | 0.00 | 41 | 1015.1 |
| 20260831173521 | 84 | 67 | 8.0 | 16.0 | 0.00 | 0.00 | 0.00 | 41 | 1015.1 |
| 20260831173023 | 84 | 33 | 9.0 | 16.0 | 0.00 | 0.00 | 0.00 | 41 | 1015.2 |
| 20260831172521 | 84 | 67 | 6.0 | 14.0 | 0.00 | 0.00 | 0.00 | 40 | 1015.1 |
| 20260831172020 | 84 | 69 | 5.0 | 15.0 | 0.00 | 0.00 | 0.00 | 40 | 1015.0 |
| 20260831171520 | 85 | 65 | 7.0 | 14.0 | 0.00 | 0.00 | 0.00 | 40 | 1014.9 |
| 20260831171020 | 85 | 78 | 7.0 | 13.0 | 0.00 | 0.00 | 0.00 | 40 | 1014.9 |
| 20260831170520 | 85 | 59 | 6.0 | 14.0 | 0.00 | 0.00 | 0.00 | 40 | 1015.0 |
| 20260831170021 | 85 | 101 | 7.0 | 14.0 | 0.00 | 0.00 | 0.00 | 39 | 1015.0 |
| 20260831165520 | 85 | 82 | 7.0 | 16.0 | 0.00 | 0.00 | 0.00 | 39 | 1015.0 |
| 20260831165019 | 85 | 74 | 8.0 | 16.0 | 0.00 | 0.00 | 0.00 | 39 | 1015.0 |
| 20260831164521 | 86 | 77 | 8.0 | 17.0 | 0.00 | 0.00 | 0.00 | 39 | 1015.1 |
| 20260831164019 | 86 | 61 | 9.0 | 17.0 | 0.00 | 0.00 | 0.00 | 39 | 1015.1 |
| 20260831163519 | 86 | 75 | 8.0 | 15.0 | 0.00 | 0.00 | 0.00 | 39 | 1015.1 |
| 20260831163019 | 87 | 76 | 8.0 | 13.0 | 0.00 | 0.00 | 0.00 | 39 | 1015.1 |
| 20260831162519 | 87 | 83 | 5.0 | 16.0 | 0.00 | 0.00 | 0.00 | 39 | 1015.1 |
| 20260831162017 | 87 | 57 | 10.0 | 15.0 | 0.00 | 0.00 | 0.00 | 39 | 1015.1 |
| 20260831161517 | 88 | 90 | 8.0 | 13.0 | 0.00 | 0.00 | 0.00 | 38 | 1015.1 |
| 20260831161017 | 88 | 138 | 5.0 | 13.0 | 0.00 | 0.00 | 0.00 | 38 | 1015.1 |
| 20260831160517 | 88 | 39 | 3.0 | 13.0 | 0.00 | 0.00 | 0.00 | 38 | 1015.0 |
| 20260831160016 | 88 | 121 | 7.0 | 12.0 | 0.00 | 0.00 | 0.00 | 38 | 1015.2 |
| 20260831155518 | 88 | 75 | 7.0 | 16.0 | 0.00 | 0.00 | 0.00 | 38 | 1015.1 |
| 20260831155016 | 88 | 105 | 9.0 | 17.0 | 0.00 | 0.00 | 0.00 | 38 | 1015.0 |
| 20260831154524 | 89 | 61 | 8.0 | 12.0 | 0.00 | 0.00 | 0.00 | 38 | 1015.1 |
| 20260831154014 | 89 | 84 | 2.0 | 13.0 | 0.00 | 0.00 | 0.00 | 38 | 1014.9 |
| 20260831153514 | 89 | 94 | 7.0 | 13.0 | 0.00 | 0.00 | 0.00 | 38 | 1015.0 |
| 20260831153015 | 89 | 47 | 6.0 | 13.0 | 0.00 | 0.00 | 0.00 | 38 | 1015.0 |
| 20260831152511 | 89 | 78 | 7.0 | 16.0 | 0.00 | 0.00 | 0.00 | 38 | 1014.9 |
| 20260831152011 | 89 | 119 | 10.0 | 15.0 | 0.00 | 0.00 | 0.00 | 38 | 1014.9 |
| 20260831151510 | 90 | 112 | 10.0 | 15.0 | 0.00 | 0.00 | 0.00 | 37 | 1014.9 |
| 20260831151011 | 90 | 65 | 7.0 | 13.0 | 0.00 | 0.00 | 0.00 | 37 | 1014.9 |
| 20260831150507 | 90 | 144 | 6.0 | 15.0 | 0.00 | 0.00 | 0.00 | 37 | 1014.8 |
| 20260831150008 | 90 | 82 | 10.0 | 16.0 | 0.00 | 0.00 | 0.00 | 38 | 1014.8 |
| 20260831145507 | 90 | 43 | 8.0 | 16.0 | 0.00 | 0.00 | 0.00 | 37 | 1014.8 |
| 20260831145012 | 90 | 59 | 5.0 | 13.0 | 0.00 | 0.00 | 0.00 | 37 | 1014.8 |
| 20260831144507 | 91 | 11 | 4.0 | 13.0 | 0.00 | 0.00 | 0.00 | 38 | 1014.8 |
| 20260831144107 | 90 | 103 | 8.0 | 14.0 | 0.00 | 0.00 | 0.00 | 38 | 1015.0 |
| 20260831143507 | 90 | 83 | 9.0 | 14.0 | 0.00 | 0.00 | 0.00 | 38 | 1015.0 |
| 20260831143008 | 90 | 45 | 4.0 | 10.0 | 0.00 | 0.00 | 0.00 | 38 | 1015.0 |
| 20260831142506 | 90 | 132 | 3.0 | 13.0 | 0.00 | 0.00 | 0.00 | 38 | 1014.9 |
| 20260831142006 | 90 | 101 | 4.0 | 13.0 | 0.00 | 0.00 | 0.00 | 38 | 1014.9 |
| 20260831141505 | 90 | 111 | 6.0 | 12.0 | 0.00 | 0.00 | 0.00 | 38 | 1015.0 |
| 20260831141008 | 90 | 134 | 3.0 | 14.0 | 0.00 | 0.00 | 0.00 | 38 | 1015.2 |
| 20260831140505 | 91 | 82 | 8.0 | 14.0 | 0.00 | 0.00 | 0.00 | 38 | 1015.1 |
| 20260831140007 | 91 | 107 | 4.0 | 19.0 | 0.00 | 0.00 | 0.00 | 38 | 1015.1 |
| 20260831135505 | 91 | 80 | 12.0 | 19.0 | 0.00 | 0.00 | 0.00 | 38 | 1014.9 |
| 20260831135005 | 90 | 167 | 10.0 | 15.0 | 0.00 | 0.00 | 0.00 | 39 | 1015.0 |
| 20260831134513 | 90 | 158 | 7.0 | 13.0 | 0.00 | 0.00 | 0.00 | 39 | 1015.0 |
| 20260831134005 | 90 | 110 | 6.0 | 15.0 | 0.00 | 0.00 | 0.00 | 39 | 1015.0 |
| 20260831133504 | 91 | 96 | 7.0 | 16.0 | 0.00 | 0.00 | 0.00 | 38 | 1015.0 |
| 20260831133010 | 91 | 117 | 6.0 | 14.0 | 0.00 | 0.00 | 0.00 | 38 | 1014.9 |
| 20260831132503 | 91 | 109 | 8.0 | 14.0 | 0.00 | 0.00 | 0.00 | 38 | 1014.9 |
| 20260831132004 | 91 | 130 | 6.0 | 15.0 | 0.00 | 0.00 | 0.00 | 39 | 1014.9 |
| 20260831131503 | 91 | 147 | 8.0 | 20.0 | 0.00 | 0.00 | 0.00 | 40 | 1014.9 |
| 20260831131004 | 91 | 140 | 9.0 | 20.0 | 0.00 | 0.00 | 0.00 | 40 | 1014.9 |
| 20260831130503 | 91 | 111 | 7.0 | 16.0 | 0.00 | 0.00 | 0.00 | 39 | 1015.0 |
| 20260831130005 | 91 | 101 | 6.0 | 15.0 | 0.00 | 0.00 | 0.00 | 39 | 1014.9 |
| 20260831125502 | 91 | 115 | 8.0 | 15.0 | 0.00 | 0.00 | 0.00 | 39 | 1015.0 |
| 20260831125001 | 92 | 93 | 3.0 | 15.0 | 0.00 | 0.00 | 0.00 | 39 | 1015.0 |
| 20260831124500 | 91 | 115 | 10.0 | 20.0 | 0.00 | 0.00 | 0.00 | 39 | 1015.1 |
| 20260831124001 | 92 | 109 | 10.0 | 19.0 | 0.00 | 0.00 | 0.00 | 38 | 1015.1 |
| 20260831123600 | 92 | 105 | 4.0 | 15.0 | 0.00 | 0.00 | 0.00 | 38 | 1015.1 |
| 20260831123102 | 92 | 102 | 9.0 | 19.0 | 0.00 | 0.00 | 0.00 | 38 | 1015.2 |
| 20260831122603 | 92 | 82 | 10.0 | 19.0 | 0.00 | 0.00 | 0.00 | 38 | 1015.3 |
| 20260831122059 | 91 | 115 | 10.0 | 17.0 | 0.00 | 0.00 | 0.00 | 39 | 1015.2 |
| 20260831121621 | 91 | 110 | 10.0 | 18.0 | 0.00 | 0.00 | 0.00 | 38 | 1015.2 |
| 20260831121059 | 92 | 123 | 10.0 | 18.0 | 0.00 | 0.00 | 0.00 | 38 | 1015.3 |
| 20260831120600 | 92 | 84 | 7.0 | 18.0 | 0.00 | 0.00 | 0.00 | 39 | 1015.3 |
| 20260831120058 | 92 | 101 | 7.0 | 15.0 | 0.00 | 0.00 | 0.00 | 38 | 1015.3 |
| 20260831115557 | 92 | 105 | 8.0 | 15.0 | 0.00 | 0.00 | 0.00 | 39 | 1015.3 |
| 20260831115059 | 92 | 113 | 6.0 | 18.0 | 0.00 | 0.00 | 0.00 | 39 | 1015.4 |
| 20260831114556 | 91 | 91 | 8.0 | 18.0 | 0.00 | 0.00 | 0.00 | 39 | 1015.5 |
| 20260831114056 | 92 | 124 | 8.0 | 17.0 | 0.00 | 0.00 | 0.00 | 39 | 1015.6 |
| 20260831113556 | 92 | 130 | 4.0 | 15.0 | 0.00 | 0.00 | 0.00 | 39 | 1015.6 |
| 20260831113105 | 92 | 142 | 9.0 | 15.0 | 0.00 | 0.00 | 0.00 | 38 | 1015.6 |
| 20260831112554 | 92 | 57 | 7.0 | 14.0 | 0.00 | 0.00 | 0.00 | 39 | 1015.8 |
| 20260831112051 | 91 | 72 | 5.0 | 11.0 | 0.00 | 0.00 | 0.00 | 40 | 1015.8 |
| 20260831111553 | 92 | 129 | 5.0 | 12.0 | 0.00 | 0.00 | 0.00 | 39 | 1015.8 |
| 20260831111049 | 91 | 60 | 6.0 | 14.0 | 0.00 | 0.00 | 0.00 | 40 | 1015.9 |
| 20260831110548 | 91 | 103 | 8.0 | 14.0 | 0.00 | 0.00 | 0.00 | 39 | 1016.0 |
| 20260831110048 | 90 | 115 | 7.0 | 15.0 | 0.00 | 0.00 | 0.00 | 40 | 1016.0 |
| 20260831105547 | 91 | 88 | 10.0 | 15.0 | 0.00 | 0.00 | 0.00 | 40 | 1016.2 |
| 20260831105048 | 90 | 147 | 7.0 | 16.0 | 0.00 | 0.00 | 0.00 | 40 | 1016.2 |
| 20260831104555 | 91 | 104 | 11.0 | 16.0 | 0.00 | 0.00 | 0.00 | 40 | 1016.2 |
| 20260831104045 | 91 | 120 | 10.0 | 15.0 | 0.00 | 0.00 | 0.00 | 39 | 1016.2 |
| 20260831103548 | 91 | 115 | 7.0 | 15.0 | 0.00 | 0.00 | 0.00 | 40 | 1016.4 |
| 20260831103043 | 90 | 51 | 9.0 | 18.0 | 0.00 | 0.00 | 0.00 | 40 | 1016.4 |
| 20260831102546 | 90 | 94 | 11.0 | 18.0 | 0.00 | 0.00 | 0.00 | 39 | 1016.4 |
| 20260831102042 | 91 | 116 | 7.0 | 14.0 | 0.00 | 0.00 | 0.00 | 40 | 1016.5 |
| 20260831101545 | 91 | 65 | 3.0 | 13.0 | 0.00 | 0.00 | 0.00 | 40 | 1016.6 |
| 20260831101041 | 90 | 69 | 6.0 | 17.0 | 0.00 | 0.00 | 0.00 | 40 | 1016.6 |
| 20260831100544 | 90 | 116 | 10.0 | 17.0 | 0.00 | 0.00 | 0.00 | 41 | 1016.6 |
| 20260831100039 | 90 | 90 | 7.0 | 17.0 | 0.00 | 0.00 | 0.00 | 41 | 1016.6 |
| 20260831095539 | 89 | 128 | 9.0 | 17.0 | 0.00 | 0.00 | 0.00 | 41 | 1016.6 |
| 20260831095038 | 89 | 96 | 8.0 | 14.0 | 0.00 | 0.00 | 0.00 | 41 | 1016.7 |
| 20260831094543 | 90 | 103 | 8.0 | 14.0 | 0.00 | 0.00 | 0.00 | 41 | 1016.8 |
| 20260831094036 | 90 | 68 | 4.0 | 17.0 | 0.00 | 0.00 | 0.00 | 42 | 1016.8 |
| 20260831093536 | 89 | 61 | 8.0 | 17.0 | 0.00 | 0.00 | 0.00 | 42 | 1016.9 |
| 20260831093047 | 89 | 88 | 7.0 | 17.0 | 0.00 | 0.00 | 0.00 | 43 | 1016.9 |
| 20260831092534 | 89 | 95 | 10.0 | 17.0 | 0.00 | 0.00 | 0.00 | 42 | 1016.9 |
| 20260831092031 | 89 | 5 | 5.0 | 14.0 | 0.00 | 0.00 | 0.00 | 42 | 1017.0 |
| 20260831091541 | 89 | 104 | 4.0 | 13.0 | 0.00 | 0.00 | 0.00 | 42 | 1017.0 |
| 20260831091031 | 89 | 55 | 6.0 | 16.0 | 0.00 | 0.00 | 0.00 | 42 | 1017.0 |
| 20260831090529 | 88 | 101 | 9.0 | 16.0 | 0.00 | 0.00 | 0.00 | 43 | 1017.1 |
| 20260831090027 | 88 | 128 | 5.0 | 14.0 | 0.00 | 0.00 | 0.00 | 43 | 1017.1 |
| 20260831085526 | 88 | 14 | 8.0 | 14.0 | 0.00 | 0.00 | 0.00 | 43 | 1017.2 |
| 20260831085024 | 88 | 50 | 9.0 | 14.0 | 0.00 | 0.00 | 0.00 | 44 | 1017.2 |
| 20260831084555 | 88 | 30 | 7.0 | 14.0 | 0.00 | 0.00 | 0.00 | 44 | 1017.2 |
| 20260831084021 | 88 | 115 | 7.0 | 12.0 | 0.00 | 0.00 | 0.00 | 44 | 1017.2 |
| 20260831083520 | 87 | 62 | 5.0 | 14.0 | 0.00 | 0.00 | 0.00 | 44 | 1017.3 |
| 20260831083019 | 87 | 65 | 7.0 | 14.0 | 0.00 | 0.00 | 0.00 | 44 | 1017.3 |
| 20260831082518 | 87 | 47 | 7.0 | 13.0 | 0.00 | 0.00 | 0.00 | 45 | 1017.3 |
| 20260831082019 | 87 | 72 | 4.0 | 16.0 | 0.00 | 0.00 | 0.00 | 46 | 1017.3 |
| 20260831081516 | 87 | 31 | 10.0 | 18.0 | 0.00 | 0.00 | 0.00 | 45 | 1017.4 |
| 20260831081015 | 86 | 75 | 10.0 | 18.0 | 0.00 | 0.00 | 0.00 | 46 | 1017.3 |
| 20260831080512 | 86 | 110 | 9.0 | 16.0 | 0.00 | 0.00 | 0.00 | 46 | 1017.2 |
| 20260831080032 | 86 | 85 | 5.0 | 15.0 | 0.00 | 0.00 | 0.00 | 47 | 1017.2 |
| 20260831075510 | 86 | 55 | 10.0 | 19.0 | 0.00 | 0.00 | 0.00 | 47 | 1017.2 |
| 20260831075009 | 86 | 61 | 12.0 | 19.0 | 0.00 | 0.00 | 0.00 | 46 | 1017.3 |
| 20260831074521 | 86 | 92 | 7.0 | 15.0 | 0.00 | 0.00 | 0.00 | 47 | 1017.2 |
| 20260831074006 | 85 | 117 | 5.0 | 16.0 | 0.00 | 0.00 | 0.00 | 48 | 1017.2 |
| 20260831073508 | 85 | 90 | 12.0 | 16.0 | 0.00 | 0.00 | 0.00 | 48 | 1017.2 |
| 20260831073003 | 85 | 56 | 9.0 | 16.0 | 0.00 | 0.00 | 0.00 | 49 | 1017.2 |
| 20260831072505 | 85 | 74 | 8.0 | 18.0 | 0.00 | 0.00 | 0.00 | 49 | 1017.2 |
| 20260831072100 | 84 | 87 | 10.0 | 18.0 | 0.00 | 0.00 | 0.00 | 49 | 1017.2 |
| 20260831071610 | 84 | 64 | 8.0 | 18.0 | 0.00 | 0.00 | 0.00 | 50 | 1017.2 |
| 20260831071057 | 84 | 88 | 12.0 | 19.0 | 0.00 | 0.00 | 0.00 | 49 | 1017.2 |
| 20260831070556 | 84 | 93 | 7.0 | 19.0 | 0.00 | 0.00 | 0.00 | 49 | 1017.1 |
| 20260831070055 | 84 | 98 | 11.0 | 17.0 | 0.00 | 0.00 | 0.00 | 49 | 1017.2 |
| 20260831065555 | 84 | 85 | 8.0 | 17.0 | 0.00 | 0.00 | 0.00 | 49 | 1017.1 |
| 20260831065052 | 84 | 107 | 7.0 | 15.0 | 0.00 | 0.00 | 0.00 | 49 | 1017.0 |
| 20260831064556 | 83 | 104 | 6.0 | 14.0 | 0.00 | 0.00 | 0.00 | 50 | 1016.9 |
| 20260831064049 | 83 | 99 | 7.0 | 13.0 | 0.00 | 0.00 | 0.00 | 52 | 1017.0 |
| 20260831063547 | 82 | 58 | 8.0 | 11.0 | 0.00 | 0.00 | 0.00 | 52 | 1017.1 |
| 20260831063102 | 82 | 115 | 4.0 | 11.0 | 0.00 | 0.00 | 0.00 | 54 | 1017.0 |
| 20260831062544 | 81 | 69 | 7.0 | 11.0 | 0.00 | 0.00 | 0.00 | 54 | 1017.0 |
| 20260831062043 | 81 | 117 | 5.0 | 14.0 | 0.00 | 0.00 | 0.00 | 55 | 1017.0 |
| 20260831061541 | 81 | 101 | 9.0 | 14.0 | 0.00 | 0.00 | 0.00 | 54 | 1017.1 |
| 20260831061039 | 81 | 100 | 8.0 | 14.0 | 0.00 | 0.00 | 0.00 | 54 | 1017.2 |
| 20260831060539 | 80 | 116 | 5.0 | 15.0 | 0.00 | 0.00 | 0.00 | 54 | 1017.2 |
| 20260831060037 | 80 | 73 | 6.0 | 15.0 | 0.00 | 0.00 | 0.00 | 55 | 1017.2 |
| 20260831055535 | 80 | 128 | 9.0 | 15.0 | 0.00 | 0.00 | 0.00 | 55 | 1017.2 |
| 20260831055036 | 80 | 84 | 9.0 | 15.0 | 0.00 | 0.00 | 0.00 | 56 | 1017.3 |
| 20260831054533 | 79 | 103 | 7.0 | 15.0 | 0.00 | 0.00 | 0.00 | 57 | 1017.3 |
| 20260831054031 | 79 | 88 | 8.0 | 17.0 | 0.00 | 0.00 | 0.00 | 57 | 1017.1 |
| 20260831053529 | 79 | 76 | 8.0 | 17.0 | 0.00 | 0.00 | 0.00 | 58 | 1017.0 |
| 20260831053028 | 79 | 98 | 11.0 | 15.0 | 0.00 | 0.00 | 0.00 | 58 | 1017.1 |
| 20260831052526 | 79 | 96 | 9.0 | 18.0 | 0.00 | 0.00 | 0.00 | 59 | 1017.0 |
| 20260831052024 | 78 | 67 | 9.0 | 18.0 | 0.00 | 0.00 | 0.00 | 59 | 1017.1 |
| 20260831051533 | 78 | 91 | 10.0 | 15.0 | 0.00 | 0.00 | 0.00 | 60 | 1017.1 |
| 20260831051021 | 78 | 83 | 8.0 | 14.0 | 0.00 | 0.00 | 0.00 | 60 | 1017.0 |
| 20260831050526 | 78 | 92 | 10.0 | 14.0 | 0.00 | 0.00 | 0.00 | 60 | 1016.9 |
| 20260831050019 | 78 | 69 | 8.0 | 14.0 | 0.00 | 0.00 | 0.00 | 60 | 1017.0 |
| 20260831045521 | 77 | 99 | 6.0 | 13.0 | 0.00 | 0.00 | 0.00 | 58 | 1017.0 |
| 20260831045016 | 77 | 84 | 3.0 | 8.0 | 0.00 | 0.00 | 0.00 | 56 | 1016.9 |
| 20260831044517 | 77 | 76 | 2.0 | 6.0 | 0.00 | 0.00 | 0.00 | 55 | 1016.8 |
| 20260831044014 | 77 | 19 | 4.0 | 8.0 | 0.00 | 0.00 | 0.00 | 55 | 1016.9 |
| 20260831043512 | 77 | 58 | 3.0 | 8.0 | 0.00 | 0.00 | 0.00 | 54 | 1016.9 |
| 20260831043011 | 77 | 15 | 2.0 | 6.0 | 0.00 | 0.00 | 0.00 | 54 | 1016.9 |
| 20260831042510 | 76 | 45 | 2.0 | 5.0 | 0.00 | 0.00 | 0.00 | 54 | 1016.8 |
| 20260831042009 | 76 | 58 | 2.0 | 8.0 | 0.00 | 0.00 | 0.00 | 55 | 1016.8 |
| 20260831041511 | 75 | 38 | 4.0 | 8.0 | 0.00 | 0.00 | 0.00 | 55 | 1016.8 |
| 20260831041009 | 75 | 36 | 3.0 | 7.0 | 0.00 | 0.00 | 0.00 | 55 | 1016.7 |
| 20260831040506 | 75 | 28 | 3.0 | 6.0 | 0.00 | 0.00 | 0.00 | 55 | 1016.8 |
| 20260831040015 | 75 | 38 | 3.0 | 6.0 | 0.00 | 0.00 | 0.00 | 55 | 1016.8 |
| 20260831035505 | 75 | 13 | 3.0 | 6.0 | 0.00 | 0.00 | 0.00 | 55 | 1016.8 |
| 20260831035005 | 75 | 5 | 4.0 | 6.0 | 0.00 | 0.00 | 0.00 | 55 | 1016.9 |
| 20260831034506 | 76 | 23 | 3.0 | 5.0 | 0.00 | 0.00 | 0.00 | 55 | 1016.8 |
| 20260831034005 | 76 | 17 | 2.0 | 5.0 | 0.00 | 0.00 | 0.00 | 54 | 1016.8 |
| 20260831033504 | 76 | 17 | 2.0 | 6.0 | 0.00 | 0.00 | 0.00 | 53 | 1016.9 |
| 20260831033007 | 77 | 36 | 3.0 | 11.0 | 0.00 | 0.00 | 0.00 | 52 | 1016.8 |
| 20260831032504 | 78 | 86 | 7.0 | 11.0 | 0.00 | 0.00 | 0.00 | 51 | 1016.8 |
| 20260831032003 | 78 | 79 | 6.0 | 10.0 | 0.00 | 0.00 | 0.00 | 51 | 1016.9 |
| 20260831031503 | 78 | 74 | 2.0 | 7.0 | 0.00 | 0.00 | 0.00 | 51 | 1016.8 |
| 20260831031003 | 78 | 101 | 3.0 | 7.0 | 0.00 | 0.00 | 0.00 | 51 | 1016.8 |
| 20260831030503 | 78 | 73 | 4.0 | 12.0 | 0.00 | 0.00 | 0.00 | 50 | 1016.7 |
| 20260831030003 | 79 | 102 | 7.0 | 14.0 | 0.00 | 0.00 | 0.00 | 50 | 1016.7 |
| 20260831025502 | 78 | 66 | 8.0 | 14.0 | 0.00 | 0.00 | 0.00 | 50 | 1016.7 |
| 20260831025002 | 78 | 143 | 8.0 | 13.0 | 0.00 | 0.00 | 0.00 | 50 | 1016.6 |
| 20260831024502 | 78 | 82 | 7.0 | 14.0 | 0.00 | 0.00 | 0.00 | 51 | 1016.6 |
| 20260831024000 | 78 | 81 | 8.0 | 14.0 | 0.00 | 0.00 | 0.00 | 51 | 1016.6 |
| 20260831023500 | 78 | 91 | 8.0 | 13.0 | 0.00 | 0.00 | 0.00 | 51 | 1016.6 |
| 20260831023104 | 78 | 64 | 9.0 | 13.0 | 0.00 | 0.00 | 0.00 | 52 | 1016.6 |
| 20260831022559 | 78 | 109 | 7.0 | 12.0 | 0.00 | 0.00 | 0.00 | 53 | 1016.6 |
| 20260831022059 | 77 | 72 | 5.0 | 10.0 | 0.00 | 0.00 | 0.00 | 53 | 1016.7 |
| 20260831021601 | 76 | 84 | 6.0 | 9.0 | 0.00 | 0.00 | 0.00 | 55 | 1016.6 |
| 20260831021059 | 76 | 73 | 3.0 | 6.0 | 0.00 | 0.00 | 0.00 | 57 | 1016.7 |
| 20260831020559 | 76 | 53 | 1.0 | 5.0 | 0.00 | 0.00 | 0.00 | 57 | 1016.8 |
| 20260831020059 | 75 | 41 | 3.0 | 6.0 | 0.00 | 0.00 | 0.00 | 57 | 1016.8 |
| 20260831015600 | 75 | 37 | 3.0 | 6.0 | 0.00 | 0.00 | 0.00 | 58 | 1016.8 |
| 20260831015058 | 75 | 30 | 4.0 | 5.0 | 0.00 | 0.00 | 0.00 | 58 | 1016.8 |
| 20260831014607 | 75 | 32 | 3.0 | 6.0 | 0.00 | 0.00 | 0.00 | 59 | 1016.8 |
| 20260831014057 | 75 | 27 | 4.0 | 6.0 | 0.00 | 0.00 | 0.00 | 59 | 1016.8 |
| 20260831013556 | 75 | 32 | 3.0 | 5.0 | 0.00 | 0.00 | 0.00 | 59 | 1016.8 |
| 20260831013057 | 75 | 31 | 3.0 | 8.0 | 0.00 | 0.00 | 0.00 | 59 | 1016.8 |
| 20260831012556 | 75 | 46 | 4.0 | 9.0 | 0.00 | 0.00 | 0.00 | 59 | 1016.8 |
| 20260831012054 | 75 | 38 | 5.0 | 9.0 | 0.00 | 0.00 | 0.00 | 58 | 1016.9 |
| 20260831011559 | 75 | 57 | 4.0 | 8.0 | 0.00 | 0.00 | 0.00 | 58 | 1016.8 |
| 20260831011052 | 76 | 32 | 4.0 | 9.0 | 0.00 | 0.00 | 0.00 | 58 | 1016.9 |
| 20260831010553 | 76 | 33 | 6.0 | 9.0 | 0.00 | 0.00 | 0.00 | 57 | 1017.0 |
| 20260831005550 | 78 | 69 | 3.0 | 9.0 | 0.00 | 0.00 | 0.00 | 54 | 1017.0 |
| 20260831005049 | 78 | 110 | 3.0 | 11.0 | 0.00 | 0.00 | 0.00 | 54 | 1017.0 |
| 20260831004549 | 78 | 97 | 5.0 | 11.0 | 0.00 | 0.00 | 0.00 | 55 | 1017.0 |
| 20260831004049 | 78 | 109 | 4.0 | 12.0 | 0.00 | 0.00 | 0.00 | 55 | 1016.9 |
| 20260831003550 | 78 | 106 | 7.0 | 13.0 | 0.00 | 0.00 | 0.00 | 55 | 1017.0 |
| 20260831003050 | 78 | 98 | 8.0 | 13.0 | 0.00 | 0.00 | 0.00 | 56 | 1017.1 |
| 20260831002547 | 77 | 87 | 5.0 | 9.0 | 0.00 | 0.00 | 0.00 | 57 | 1017.1 |
| 20260831002048 | 77 | 52 | 3.0 | 7.0 | 0.00 | 0.00 | 0.00 | 58 | 1017.1 |
| 20260831001546 | 77 | 53 | 3.0 | 8.0 | 0.00 | 0.00 | 0.00 | 57 | 1017.1 |
| 20260831001046 | 77 | 61 | 4.0 | 8.0 | 0.00 | 0.00 | 0.00 | 57 | 1017.2 |
| 20260831000546 | 77 | 55 | 2.0 | 6.0 | 0.00 | 0.00 | 0.00 | 57 | 1017.2 |
| 20260831000046 | 77 | 46 | 2.0 | 5.0 | 0.00 | 0.00 | 0.00 | 57 | 1017.2 |
| 20260830235548 | 77 | 19 | 1.0 | 3.0 | 0.00 | 0.00 | 0.00 | 57 | 1017.1 |
| 20260830235048 | 77 | 348 | 0.0 | 3.0 | 0.00 | 0.00 | 0.00 | 57 | 1017.2 |
| 20260830234546 | 77 | 355 | 0.0 | 4.0 | 0.00 | 0.00 | 0.00 | 57 | 1017.2 |
| 20260830234044 | 77 | 350 | 2.0 | 4.0 | 0.00 | 0.00 | 0.00 | 57 | 1017.1 |
| 20260830233544 | 78 | 355 | 3.0 | 5.0 | 0.00 | 0.00 | 0.00 | 56 | 1017.3 |
| 20260830233045 | 78 | 15 | 3.0 | 5.0 | 0.00 | 0.00 | 0.00 | 56 | 1017.2 |
| 20260830232543 | 78 | 360 | 3.0 | 5.0 | 0.00 | 0.00 | 0.00 | 56 | 1017.2 |
| 20260830232043 | 78 | 5 | 3.0 | 5.0 | 0.00 | 0.00 | 0.00 | 56 | 1017.2 |
| 20260830231543 | 78 | 46 | 0.0 | 2.0 | 0.00 | 0.00 | 0.00 | 56 | 1017.2 |
| 20260830231043 | 78 | 46 | 0.0 | 2.0 | 0.00 | 0.00 | 0.00 | 56 | 1017.2 |
| 20260830230542 | 78 | 46 | 0.0 | 2.0 | 0.00 | 0.00 | 0.00 | 56 | 1017.3 |
| 20260830230042 | 78 | 45 | 0.0 | 3.0 | 0.00 | 0.00 | 0.00 | 56 | 1017.3 |